TimeCST,TemperatureF,Dew PointF,Humidity,Sea Level PressureIn,VisibilityMPH,Wind Direction,Wind SpeedMPH,Gust SpeedMPH,PrecipitationIn,Events,Conditions,WindDirDegrees,DateUTC
12:53 AM,48.9,39.0,69,29.81,10.0,South,5.8,-,N/A,,Clear,180,2012-12-01 06:53:00
1:53 AM,48.2,39.2,71,29.82,10.0,South,19.6,-,N/A,,Clear,170,2012-12-01 07:53:00
2:53 AM,46.9,39.0,74,29.79,10.0,South,15.0,-,N/A,,Clear,180,2012-12-01 08:53:00
3:53 AM,48.2,35.6,62,29.80,10.0,South,17.3,-,N/A,,Clear,190,2012-12-01 09:53:00
4:53 AM,50.0,32.0,50,29.75,10.0,SSW,17.3,-,N/A,,Clear,210,2012-12-01 10:53:00
5:53 AM,50.0,28.9,44,29.75,10.0,SSW,16.1,-,N/A,,Clear,200,2012-12-01 11:53:00
6:53 AM,50.0,28.4,43,29.77,10.0,SSW,12.7,-,N/A,,Clear,210,2012-12-01 12:53:00
7:53 AM,48.0,27.0,44,29.79,10.0,Calm,Calm,-,N/A,,Clear,0,2012-12-01 13:53:00
8:53 AM,48.9,28.0,44,29.82,10.0,West,3.5,-,N/A,,Clear,270,2012-12-01 14:53:00
9:53 AM,60.1,26.1,27,29.81,10.0,West,10.4,-,N/A,,Clear,260,2012-12-01 15:53:00
10:53 AM,68.0,27.0,21,29.81,10.0,West,16.1,-,N/A,,Clear,270,2012-12-01 16:53:00
11:53 AM,75.2,26.6,17,29.82,10.0,WSW,13.8,-,N/A,,Clear,250,2012-12-01 17:53:00
12:53 PM,75.0,26.1,16,29.78,10.0,WNW,10.4,-,N/A,,Clear,290,2012-12-01 18:53:00
1:53 PM,75.0,26.1,16,29.77,10.0,NNW,10.4,-,N/A,,Clear,340,2012-12-01 19:53:00
2:53 PM,71.6,26.6,19,29.83,10.0,NW,11.5,-,N/A,,Clear,320,2012-12-01 20:53:00
3:53 PM,69.1,28.9,22,29.83,10.0,North,15.0,-,N/A,,Clear,350,2012-12-01 21:53:00
4:53 PM,64.0,30.0,28,29.86,10.0,NNW,8.1,-,N/A,,Clear,340,2012-12-01 22:53:00
5:53 PM,53.1,30.0,41,29.89,10.0,North,8.1,-,N/A,,Clear,360,2012-12-01 23:53:00
6:53 PM,50.0,32.0,50,29.91,10.0,Calm,Calm,-,N/A,,Clear,0,2012-12-02 00:53:00
7:53 PM,43.0,30.0,60,29.95,10.0,NW,5.8,-,N/A,,Clear,320,2012-12-02 01:53:00
8:53 PM,44.1,33.1,65,29.95,10.0,WNW,3.5,-,N/A,,Clear,300,2012-12-02 02:53:00
9:53 PM,41.0,33.1,73,29.96,10.0,WNW,3.5,-,N/A,,Clear,290,2012-12-02 03:53:00
10:53 PM,37.9,30.9,76,29.96,10.0,SW,5.8,-,N/A,,Clear,230,2012-12-02 04:53:00
11:53 PM,39.0,33.1,79,29.96,10.0,SW,8.1,-,N/A,,Clear,230,2012-12-02 05:53:00